Location: Peebles
(55.6412°N, 3.1714°W)
Time: 13:13:09
(UTC+00:00)

RS-15 - Pass Details

Date: 03 December 2023
Orbit: 1893 x 2151 km, 64.8° (Epoch: 02 March)

Event Time Altitude Azimuth Distance (km) Brightness Sun altitude
Exits shadow 03:47:28 48° 323° (NW) 2,483 8.3 -36.9°
Maximum altitude 03:51:22 73° 32° (NNE) 2,060 8.0 -36.4°
Drops below altitude 10° 04:02:29 10° 117° (ESE) 4,320 10.4 -34.8°
Sets 04:05:43 0° 120° (ESE) 5,297 10.9 -34.4°
